Time,TemperatureF,DewpointF,PressureIn,WindDirection,WindDirectionDegrees,WindSpeedMPH,WindSpeedGustMPH,Humidity,HourlyPrecipIn,Conditions,Clouds,dailyrainin,SolarRadiationWatts/m^2,SoftwareType,DateUTC
2013-02-01 00:22:00,30.0,19.0,-100.00,NW,306,0.0,3.0,64,0.00,,,0.34,0.000000,,2013-02-01 05:22:00,
2013-02-01 00:32:00,30.0,19.0,-100.00,NW,306,0.0,3.0,64,0.00,,,0.34,0.000000,,2013-02-01 05:32:00,
2013-02-01 00:42:00,30.0,19.0,-100.00,NW,306,0.0,3.0,64,0.00,,,0.34,0.000000,,2013-02-01 05:42:00,
2013-02-01 00:52:00,31.0,19.0,-100.00,SSW,205,0.0,1.0,60,0.00,,,0.13,0.000000,,2013-02-01 05:52:00,
2013-02-01 01:22:00,31.0,19.0,-100.00,SSW,205,0.0,1.0,60,0.00,,,0.13,0.000000,,2013-02-01 06:22:00,
2013-02-01 01:32:00,31.0,19.0,-100.00,SSW,205,0.0,1.0,60,0.00,,,0.13,0.000000,,2013-02-01 06:32:00,
2013-02-01 01:42:00,31.0,19.0,-100.00,SSW,205,0.0,1.0,60,0.00,,,0.13,0.000000,,2013-02-01 06:42:00,
2013-02-01 02:12:00,31.0,20.0,-100.00,North,349,0.0,1.0,64,0.00,,,0.05,0.000000,,2013-02-01 07:12:00,
2013-02-01 02:22:00,31.0,20.0,-100.00,North,349,0.0,1.0,64,0.00,,,0.05,0.000000,,2013-02-01 07:22:00,
2013-02-01 02:32:00,31.0,20.0,-100.00,North,349,0.0,1.0,64,0.00,,,0.05,0.000000,,2013-02-01 07:32:00,
2013-02-01 02:42:00,31.0,20.0,-100.00,North,349,0.0,1.0,64,0.00,,,0.05,0.000000,,2013-02-01 07:42:00,
2013-02-01 02:51:00,31.0,20.0,-100.00,North,349,0.0,1.0,64,0.00,,,0.05,0.000000,,2013-02-01 07:51:00,
2013-02-01 02:52:00,32.0,20.0,-100.00,SSW,211,0.0,3.0,62,0.00,,,0.01,0.000000,,2013-02-01 07:52:00,
2013-02-01 03:22:00,32.0,20.0,-100.00,SSW,211,0.0,3.0,62,0.00,,,0.01,0.000000,,2013-02-01 08:22:00,
2013-02-01 03:32:00,32.0,20.0,-100.00,SSW,211,0.0,3.0,62,0.00,,,0.01,0.000000,,2013-02-01 08:32:00,
2013-02-01 03:42:00,32.0,20.0,-100.00,SSW,211,0.0,3.0,62,0.00,,,0.01,0.000000,,2013-02-01 08:42:00,
2013-02-01 04:11:00,32.0,22.0,-100.00,NNW,337,1.0,4.0,66,0.00,,,0.01,0.000000,,2013-02-01 09:11:00,
2013-02-01 04:22:00,32.0,22.0,-100.00,NNW,337,1.0,4.0,66,0.00,,,0.01,0.000000,,2013-02-01 09:22:00,
2013-02-01 04:32:00,32.0,22.0,-100.00,NNW,337,1.0,4.0,66,0.00,,,0.01,0.000000,,2013-02-01 09:32:00,
2013-02-01 04:42:00,32.0,22.0,-100.00,NNW,337,1.0,4.0,66,0.00,,,0.01,0.000000,,2013-02-01 09:42:00,
2013-02-01 04:51:00,32.0,22.0,-100.00,NNW,337,1.0,4.0,66,0.00,,,0.01,0.000000,,2013-02-01 09:51:00,
2013-02-01 04:52:00,33.0,22.0,-100.00,NNW,347,1.0,5.0,63,0.00,,,0.01,0.000000,,2013-02-01 09:52:00,
2013-02-01 05:11:00,33.0,22.0,-100.00,NNW,347,1.0,5.0,63,0.00,,,0.01,0.000000,,2013-02-01 10:11:00,
2013-02-01 05:21:00,33.0,22.0,-100.00,NNW,347,1.0,5.0,63,0.00,,,0.01,0.000000,,2013-02-01 10:21:00,
2013-02-01 05:32:00,33.0,22.0,-100.00,NNW,347,1.0,5.0,63,0.00,,,0.01,0.000000,,2013-02-01 10:32:00,
2013-02-01 05:43:00,33.0,22.0,-100.00,NNW,347,1.0,5.0,63,0.00,,,0.01,0.000000,,2013-02-01 10:43:00,
2013-02-01 05:52:00,33.0,23.0,-100.00,West,273,1.0,6.0,65,0.00,,,0.00,0.000000,,2013-02-01 10:52:00,
2013-02-01 06:22:00,33.0,23.0,-100.00,West,273,1.0,6.0,65,0.00,,,0.00,0.000000,,2013-02-01 11:22:00,
2013-02-01 06:32:00,33.0,23.0,-100.00,West,273,1.0,6.0,65,0.00,,,0.00,0.000000,,2013-02-01 11:32:00,
2013-02-01 06:42:00,33.0,23.0,-100.00,West,273,1.0,6.0,65,0.00,,,0.00,0.000000,,2013-02-01 11:42:00,
2013-02-01 06:52:00,38.0,23.0,-100.00,NE,34,4.0,13.0,54,0.00,,,0.00,0.000000,,2013-02-01 11:52:00,
2013-02-01 07:12:00,38.0,23.0,-100.00,NE,34,4.0,13.0,54,0.00,,,0.00,0.000000,,2013-02-01 12:12:00,
2013-02-01 07:23:00,38.0,23.0,-100.00,NE,34,4.0,13.0,54,0.00,,,0.00,0.000000,,2013-02-01 12:23:00,
2013-02-01 07:32:00,38.0,23.0,-100.00,NE,34,4.0,13.0,54,0.00,,,0.00,0.000000,,2013-02-01 12:32:00,
2013-02-01 07:42:00,38.0,23.0,-100.00,NE,34,4.0,13.0,54,0.00,,,0.00,0.000000,,2013-02-01 12:42:00,
2013-02-01 07:52:00,36.0,27.0,-100.00,East,87,9.0,26.0,69,0.00,,,0.00,4.000000,,2013-02-01 12:52:00,
2013-02-01 08:12:00,36.0,27.0,-100.00,East,87,9.0,26.0,69,0.00,,,0.00,4.000000,,2013-02-01 13:12:00,
2013-02-01 08:22:00,36.0,27.0,-100.00,East,87,9.0,26.0,69,0.00,,,0.00,4.000000,,2013-02-01 13:22:00,
2013-02-01 08:33:00,36.0,27.0,-100.00,East,87,9.0,26.0,69,0.00,,,0.00,4.000000,,2013-02-01 13:33:00,
2013-02-01 08:42:00,36.0,27.0,-100.00,East,87,9.0,26.0,69,0.00,,,0.00,4.000000,,2013-02-01 13:42:00,
2013-02-01 08:52:00,34.0,14.0,-100.00,ENE,72,9.0,22.0,43,0.00,,,0.00,60.000000,,2013-02-01 13:52:00,
2013-02-01 09:12:00,34.0,14.0,-100.00,ENE,72,9.0,22.0,43,0.00,,,0.00,60.000000,,2013-02-01 14:12:00,
2013-02-01 09:22:00,34.0,14.0,-100.00,ENE,72,9.0,22.0,43,0.00,,,0.00,60.000000,,2013-02-01 14:22:00,
2013-02-01 09:42:00,34.0,14.0,-100.00,ENE,72,9.0,22.0,43,0.00,,,0.00,60.000000,,2013-02-01 14:42:00,
2013-02-01 09:52:00,36.0,8.0,-100.00,ENE,71,9.0,26.0,30,0.00,,,0.00,283.000000,,2013-02-01 14:52:00,
2013-02-01 10:22:00,36.0,8.0,-100.00,ENE,71,9.0,26.0,30,0.00,,,0.00,283.000000,,2013-02-01 15:22:00,
2013-02-01 10:33:00,36.0,8.0,-100.00,ENE,71,9.0,26.0,30,0.00,,,0.00,283.000000,,2013-02-01 15:33:00,
2013-02-01 10:42:00,36.0,8.0,-100.00,ENE,71,9.0,26.0,30,0.00,,,0.00,283.000000,,2013-02-01 15:42:00,
2013-02-01 10:52:00,36.0,4.0,-100.00,East,98,10.0,22.0,26,0.00,,,0.00,526.000000,,2013-02-01 15:52:00,
2013-02-01 11:12:00,36.0,4.0,-100.00,East,98,10.0,22.0,26,0.00,,,0.00,526.000000,,2013-02-01 16:12:00,
2013-02-01 11:22:00,36.0,4.0,-100.00,East,98,10.0,22.0,26,0.00,,,0.00,526.000000,,2013-02-01 16:22:00,
2013-02-01 11:33:00,36.0,4.0,-100.00,East,98,10.0,22.0,26,0.00,,,0.00,526.000000,,2013-02-01 16:33:00,
2013-02-01 11:43:00,36.0,4.0,-100.00,East,98,10.0,22.0,26,0.00,,,0.00,526.000000,,2013-02-01 16:43:00,
2013-02-01 11:52:00,36.0,4.0,-100.00,ENE,72,8.0,24.0,26,0.00,,,0.00,606.000000,,2013-02-01 16:52:00,
2013-02-01 12:22:00,36.0,4.0,-100.00,ENE,72,8.0,24.0,26,0.00,,,0.00,606.000000,,2013-02-01 17:22:00,
2013-02-01 12:32:00,36.0,4.0,-100.00,ENE,72,8.0,24.0,26,0.00,,,0.00,606.000000,,2013-02-01 17:32:00,
2013-02-01 12:42:00,36.0,4.0,-100.00,ENE,72,8.0,24.0,26,0.00,,,0.00,606.000000,,2013-02-01 17:42:00,
2013-02-01 12:52:00,35.0,4.0,-100.00,East,80,8.0,22.0,27,0.00,,,0.00,629.000000,,2013-02-01 17:52:00,
2013-02-01 13:12:00,35.0,4.0,-100.00,East,80,8.0,22.0,27,0.00,,,0.00,629.000000,,2013-02-01 18:12:00,
2013-02-01 13:23:00,35.0,4.0,-100.00,East,80,8.0,22.0,27,0.00,,,0.00,629.000000,,2013-02-01 18:23:00,
2013-02-01 13:32:00,35.0,4.0,-100.00,East,80,8.0,22.0,27,0.00,,,0.00,629.000000,,2013-02-01 18:32:00,
2013-02-01 13:42:00,35.0,4.0,-100.00,East,80,8.0,22.0,27,0.00,,,0.00,629.000000,,2013-02-01 18:42:00,
2013-02-01 14:12:00,37.0,2.0,-100.00,ENE,66,8.0,24.0,22,0.00,,,-99.99,622.000000,,2013-02-01 19:12:00,
2013-02-01 14:22:00,37.0,2.0,-100.00,ENE,66,8.0,24.0,22,0.00,,,-99.99,622.000000,,2013-02-01 19:22:00,
2013-02-01 14:32:00,37.0,2.0,-100.00,ENE,66,8.0,24.0,22,0.00,,,-99.99,622.000000,,2013-02-01 19:32:00,
2013-02-01 14:42:00,37.0,2.0,-100.00,ENE,66,8.0,24.0,22,0.00,,,-99.99,622.000000,,2013-02-01 19:42:00,
2013-02-01 14:51:00,37.0,2.0,-100.00,ENE,66,8.0,24.0,22,0.00,,,-99.99,622.000000,,2013-02-01 19:51:00,
2013-02-01 14:52:00,38.0,4.0,-100.00,East,85,6.0,22.0,23,0.00,,,0.00,669.000000,,2013-02-01 19:52:00,
2013-02-01 15:12:00,38.0,4.0,-100.00,East,85,6.0,22.0,23,0.00,,,0.00,669.000000,,2013-02-01 20:12:00,
2013-02-01 15:22:00,38.0,4.0,-100.00,East,85,6.0,22.0,23,0.00,,,0.00,669.000000,,2013-02-01 20:22:00,
2013-02-01 15:32:00,38.0,4.0,-100.00,East,85,6.0,22.0,23,0.00,,,0.00,669.000000,,2013-02-01 20:32:00,
2013-02-01 15:42:00,38.0,4.0,-100.00,East,85,6.0,22.0,23,0.00,,,0.00,669.000000,,2013-02-01 20:42:00,
2013-02-01 15:52:00,36.0,2.0,-100.00,East,80,5.0,27.0,23,0.00,,,0.00,515.000000,,2013-02-01 20:52:00,
2013-02-01 16:12:00,36.0,2.0,-100.00,East,80,5.0,27.0,23,0.00,,,0.00,515.000000,,2013-02-01 21:12:00,
2013-02-01 16:22:00,36.0,2.0,-100.00,East,80,5.0,27.0,23,0.00,,,0.00,515.000000,,2013-02-01 21:22:00,
2013-02-01 16:32:00,36.0,2.0,-100.00,East,80,5.0,27.0,23,0.00,,,0.00,515.000000,,2013-02-01 21:32:00,
2013-02-01 16:42:00,36.0,2.0,-100.00,East,80,5.0,27.0,23,0.00,,,0.00,515.000000,,2013-02-01 21:42:00,
2013-02-01 16:52:00,34.0,2.0,-100.00,East,92,5.0,15.0,25,0.00,,,0.00,176.000000,,2013-02-01 21:52:00,
2013-02-01 17:22:00,34.0,2.0,-100.00,East,92,5.0,15.0,25,0.00,,,0.00,176.000000,,2013-02-01 22:22:00,
2013-02-01 17:32:00,34.0,2.0,-100.00,East,92,5.0,15.0,25,0.00,,,0.00,176.000000,,2013-02-01 22:32:00,
2013-02-01 17:42:00,34.0,2.0,-100.00,East,92,5.0,15.0,25,0.00,,,0.00,176.000000,,2013-02-01 22:42:00,
2013-02-01 17:52:00,31.0,4.0,-100.00,ENE,75,3.0,11.0,31,0.00,,,0.00,19.000000,,2013-02-01 22:52:00,
2013-02-01 18:11:00,31.0,4.0,-100.00,ENE,75,3.0,11.0,31,0.00,,,0.00,19.000000,,2013-02-01 23:11:00,
2013-02-01 18:22:00,31.0,4.0,-100.00,ENE,75,3.0,11.0,31,0.00,,,0.00,19.000000,,2013-02-01 23:22:00,
2013-02-01 18:32:00,31.0,4.0,-100.00,ENE,75,3.0,11.0,31,0.00,,,0.00,19.000000,,2013-02-01 23:32:00,
2013-02-01 18:42:00,31.0,4.0,-100.00,ENE,75,3.0,11.0,31,0.00,,,0.00,19.000000,,2013-02-01 23:42:00,
2013-02-01 18:52:00,28.0,6.0,-100.00,ENE,64,1.0,7.0,39,0.00,,,0.00,0.000000,,2013-02-01 23:52:00,
2013-02-01 19:11:00,28.0,6.0,-100.00,ENE,64,1.0,7.0,39,0.00,,,0.00,0.000000,,2013-02-02 00:11:00,
2013-02-01 19:22:00,28.0,6.0,-100.00,ENE,64,1.0,7.0,39,0.00,,,0.00,0.000000,,2013-02-02 00:22:00,
2013-02-01 19:32:00,28.0,6.0,-100.00,ENE,64,1.0,7.0,39,0.00,,,0.00,0.000000,,2013-02-02 00:32:00,
2013-02-01 19:42:00,28.0,6.0,-100.00,ENE,64,1.0,7.0,39,0.00,,,0.00,0.000000,,2013-02-02 00:42:00,
2013-02-01 19:52:00,26.0,8.0,-100.00,East,79,0.0,15.0,46,0.00,,,0.00,0.000000,,2013-02-02 00:52:00,
2013-02-01 20:11:00,26.0,8.0,-100.00,East,79,0.0,15.0,46,0.00,,,0.00,0.000000,,2013-02-02 01:11:00,
2013-02-01 20:22:00,26.0,8.0,-100.00,East,79,0.0,15.0,46,0.00,,,0.00,0.000000,,2013-02-02 01:22:00,
2013-02-01 20:32:00,26.0,8.0,-100.00,East,79,0.0,15.0,46,0.00,,,0.00,0.000000,,2013-02-02 01:32:00,
2013-02-01 20:42:00,26.0,8.0,-100.00,East,79,0.0,15.0,46,0.00,,,0.00,0.000000,,2013-02-02 01:42:00,
2013-02-01 20:52:00,25.0,8.0,-100.00,East,98,1.0,5.0,48,0.00,,,0.00,0.000000,,2013-02-02 01:52:00,
2013-02-01 21:11:00,25.0,8.0,-100.00,East,98,1.0,5.0,48,0.00,,,0.00,0.000000,,2013-02-02 02:11:00,
2013-02-01 21:22:00,25.0,8.0,-100.00,East,98,1.0,5.0,48,0.00,,,0.00,0.000000,,2013-02-02 02:22:00,
2013-02-01 21:32:00,25.0,8.0,-100.00,East,98,1.0,5.0,48,0.00,,,0.00,0.000000,,2013-02-02 02:32:00,
2013-02-01 21:42:00,25.0,8.0,-100.00,East,98,1.0,5.0,48,0.00,,,0.00,0.000000,,2013-02-02 02:42:00,
2013-02-01 21:52:00,25.0,8.0,-100.00,East,86,1.0,9.0,48,0.00,,,0.00,0.000000,,2013-02-02 02:52:00,
2013-02-01 22:11:00,25.0,8.0,-100.00,East,86,1.0,9.0,48,0.00,,,0.00,0.000000,,2013-02-02 03:11:00,
2013-02-01 22:22:00,25.0,8.0,-100.00,East,86,1.0,9.0,48,0.00,,,0.00,0.000000,,2013-02-02 03:22:00,
2013-02-01 22:32:00,25.0,8.0,-100.00,East,86,1.0,9.0,48,0.00,,,0.00,0.000000,,2013-02-02 03:32:00,
2013-02-01 22:42:00,25.0,8.0,-100.00,East,86,1.0,9.0,48,0.00,,,0.00,0.000000,,2013-02-02 03:42:00,
2013-02-01 22:52:00,23.0,8.0,-100.00,ENE,76,1.0,5.0,51,0.00,,,0.00,0.000000,,2013-02-02 03:52:00,
2013-02-01 23:11:00,23.0,8.0,-100.00,ENE,76,1.0,5.0,51,0.00,,,0.00,0.000000,,2013-02-02 04:11:00,
2013-02-01 23:22:00,23.0,8.0,-100.00,ENE,76,1.0,5.0,51,0.00,,,0.00,0.000000,,2013-02-02 04:22:00,
2013-02-01 23:32:00,23.0,8.0,-100.00,ENE,76,1.0,5.0,51,0.00,,,0.00,0.000000,,2013-02-02 04:32:00,
2013-02-01 23:42:00,23.0,8.0,-100.00,ENE,76,1.0,5.0,51,0.00,,,0.00,0.000000,,2013-02-02 04:42:00,
2013-02-01 23:52:00,24.0,7.0,-100.00,East,89,1.0,5.0,48,0.00,,,0.00,0.000000,,2013-02-02 04:52:00,